Weather in Warsaw

United States     38°14′33″N   93°22′57″W
В апреле 2022 года жителям России запретили посещать сайт meteo.paraplan.net по решению Генеральной прокуратуры. Аудитория сайта уменьшилась в 10 раз. Владельцы сайта не видят смысла в поддержке погодного сервера в таких условиях. Сайт будет закрыт в октябре.
temp.,
°C
wind,
m/s
gust,
m/s
humid.,
%
clouds,
%
prec.,
mm/h
press.,
hPa
HPBL,
m
4 october, tue
tue401:00+13se384930 0.0 1022139
04:00+11ese24387 0.0 102263
07:00+10se23385 0.0 102253
10:00+19se232694 0.0 1022362
13:00+26se222198 0.0 10201099
16:00+28se222067 0.0 10171663
19:00+20e223098 0.0 101819
22:00+16se3534100 0.0 101883
5 october, wed
wed501:00+15se3641100 0.0 1018106
04:00+14sse254263 0.0 101894
07:00+13ssw234622 0.0 101949
10:00+21ssw3532100 0.0 1019350
13:00+29sw462221 0.0 10171747
16:00+30wnw481995 0.0 10143377
19:00+23w233057 0.0 101539
22:00+19nnw34420 0.0 101765
6 october, thu
thu601:00+16nnw22490 0.0 101715
04:00+14wnw11570 0.0 101810
07:00+14wnw22613 0.0 101911
10:00+22wnw24420 0.0 1020412
13:00+28nw46240 0.0 10193067
16:00+29nnw57216 0.0 10173305
19:00+23nnw223188 0.0 101823
22:00+20nne613463 0.0 1021656
7 october, fri
fri701:00+16nne411601 0.0 1024583
04:00+11nne410595 0.0 1026411
07:00+8nne310705 0.0 1028323
10:00+13nne46575 0.0 1030665
13:00+18nne45340 0.0 10281296
16:00+20nne45240 0.0 10261580
19:00+14nne35330 0.0 102770
22:00+10ene24392 0.0 102866
8 october, sat
sat801:00+8e244768 0.0 102973
04:00+6ese235033 0.0 102955
07:00+6se22515 0.0 102930
10:00+15sse22315 0.0 1029413
13:00+21wnw012341 0.0 10271061
16:00+23wsw122567 0.0 10231287
19:00+16sse224299 0.0 102312
22:00+15se2246100 0.0 102314